Location: Feigenhofen
(48.4939°N, 10.7793°E)
Time: 22:03:31
(UTC+00:00)

Lacrosse 5 - Pass Details

Date: 26 May 2022
Orbit: 714 x 724 km, 57.0° (Epoch: 09 March)

Event Time Altitude Azimuth Distance (km) Brightness Sun altitude
Exits shadow 02:37:42 - 254° (WSW) 2,621 4.2 -6.9°
Reaches altitude 10° 02:38:47 10° 257° (WSW) 2,213 3.9 -6.8°
Maximum altitude 02:43:47 53° 334° (NNW) 891 2.5 -6.1°
Drops below altitude 10° 02:48:46 10° 51° (NE) 2,216 6.3 -5.5°
Sets 02:51:13 0° 57° (ENE) 3,137 7.7 -5.2°
